www.pogodaiklimat.ru

Погода и климат >> Архив погоды >> Дания >> Рённе


ПОГОДА в Рённе

  • Прогноз погоды в Рённе
  • Монитор погоды в Рённе

АРХИВ ПОГОДЫ в Рённе

Время (UTC), дата Ветер
(напр.,м/с)
 
Видим.   Явления Облачность Т
(С)
Тd
(С)
f
(%)
Тe
(С)
Тes
(С)
Комфортность P
(гПа)
Po
(гПа)
Тmin
(С)
Tmax
(С)
R
(мм)
R24
(мм)
S
(см)
13 18.06 ЮВ 6 30 км н/о +21.5 +14.9 66 +25 +25 комфорт 1018.7 1016.8
14 18.06 ЮВ 5 35 км н/о +23.3 +16.0 64 +28 +28 душно 1018.0 1016.0
16 18.06 ЮВ 6 35 км н/о +22.1 +14.4 62 +25 +25 комфорт 1016.7 1014.8
17 18.06 ЮВ 5 45 км н/о +21.2 +14.9 67 +24 +24 комфорт 1016.5 1014.5
19 18.06 В 4 40 км н/о +18.3 +14.1 76 +19 +19 1015.8 1013.8
20 18.06 В 3 50 км н/о +17.7 +13.3 75 +18 +18 1015.9 1014.0
22 18.06 В 4 45 км н/о +17.9 +14.3 79 +18 +18 1015.5 1013.5
23 18.06 В 4 45 км н/о +18.8 +15.0 79 +20 +20 1015.2 1013.3
01 19.06 ЮВ 4 45 км н/о +18.0 +14.2 78 +18 +18 1014.2 1012.2
02 19.06 ЮВ 4 45 км н/о +17.9 +13.9 77 +18 +18 1013.9 1012.0
04 19.06 ЮВ 4 40 км н/о +17.8 +14.9 83 +18 +18 1013.8 1011.8
05 19.06 ЮВ 4 30 км н/о +18.9 +14.5 76 +20 +20 1013.6 1011.7
07 19.06 ЮВ 4 30 км н/о +19.9 +15.4 75 +22 +22 комфорт 1013.3 1011.3
08 19.06 ЮВ 4 35 км н/о +21.2 +14.5 66 +24 +24 комфорт 1013.1 1011.1
10 19.06 ЮВ 5 35 км н/о +23.5 +15.7 62 +27 +27 душно 1012.4 1010.5
11 19.06 ЮВ 6 35 км н/о +23.1 +15.2 61 +27 +27 душно 1012.1 1010.1
13 19.06 ЮВ 5 30 км н/о +25.0 +16.5 59 +28 +28 жарко 1011.3 1009.3
14 19.06 ЮВ 4 40 км н/о +25.1 +17.6 63 +29 +29 душно 1010.6 1008.6
16 19.06 В 6 35 км н/о +24.5 +16.9 63 +28 +28 душно 1009.3 1007.3
17 19.06 В 5 35 км н/о +23.5 +15.9 62 +27 +27 душно 1008.9 1006.9
19 19.06 В 5 50 км н/о +21.2 +15.8 71 +24 +24 комфорт 1008.2 1006.3
20 19.06 В 3 45 км н/о +19.7 +15.7 78 +22 +22 комфорт 1008.4 1006.5
22 19.06 В 3 40 км н/о +19.5 +15.4 77 +22 +22 комфорт 1007.7 1005.7
23 19.06 В 3 35 км н/о +19.7 +15.5 77 +22 +22 комфорт 1007.0 1005.0
01 20.06 С 5 45 км н/о +20.4 +15.6 74 +23 +23 комфорт 1007.4 1005.5
02 20.06 СВ 4 45 км в посл. час дождь {ливн. осадки} н/о +19.5 +15.6 78 +21 +21 комфорт 1006.4 1004.4
04 20.06 В 4 30 км н/о +18.6 +15.7 83 +19 +19 1006.6 1004.7
05 20.06 В 3 30 км н/о +19.4 +16.5 83 +22 +22 комфорт 1006.6 1004.6
07 20.06 ЮВ 4 23 км {ливн. осадки} н/о +20.1 +17.5 85 +23 +23 комфорт 1007.1 1005.1
08 20.06 З 2 22 км н/о +19.8 +17.2 85 +23 +23 комфорт 1007.8 1005.9
10 20.06 З 5 21 км н/о +20.0 +17.0 83 +23 +23 комфорт 1009.0 1007.1
11 20.06 ЮЗ 4 26 км н/о +20.3 +16.9 81 +24 +24 комфорт 1009.9 1007.9
13 20.06 З 3 22 км слаб. дождь н/о +19.1 +16.9 87 +21 +21 комфорт 1009.5 1007.6
14 20.06 З 4 30 км ливневой дождь н/о +18.7 +16.5 87 +20 +20 1009.8 1007.9
16 20.06 З 4 30 км н/о +19.2 +16.4 84 +21 +21 комфорт 1010.2 1008.2
17 20.06 З 4 17 км н/о +18.6 +16.6 88 +19 +19 1010.3 1008.3
19 20.06 З 4 10 км н/о +17.8 +16.4 92 +18 +18 1010.9 1008.9
20 20.06 З 5 10 км н/о +17.3 +16.2 93 +17 +17 1011.5 1009.6
22 20.06 З 5 13 км н/о +17.0 +16.0 94 +16 +16 1012.4 1010.5
23 20.06 З 4 14 км н/о +17.0 +15.9 93 +16 +16 1012.2 1010.2
01 21.06 З 3 11 км н/о +17.0 +16.0 94 +17 +17 1013.0 1011.0
02 21.06 З 4 13 км н/о +16.9 +15.9 94 +16 +16 1013.1 1011.1
04 21.06 СЗ 2 30 км н/о +16.8 +14.7 87 +17 +17 1013.3 1011.4
05 21.06 СЗ 2 30 км н/о +16.9 +15.0 89 +17 +17 1013.9 1012.0
07 21.06 З 3 15 км н/о +16.9 +15.7 93 +17 +17 1014.9 1013.0
08 21.06 З 3 30 км в посл. час дождь {ливн. осадки} н/о +16.8 +14.0 84 +17 +17 1015.5 1013.5
10 21.06 З 4 35 км {ливн. осадки} н/о +18.2 +15.5 84 +18 +18 1016.3 1014.3
11 21.06 З 5 30 км н/о +18.8 +13.4 71 +19 +19 1016.6 1014.6
13 21.06 З 6 35 км н/о +18.8 +14.4 76 +19 +19 1017.0 1015.0
14 21.06 З 6 35 км н/о +18.5 +14.1 76 +19 +19 1017.1 1015.1
16 21.06 З 5 45 км н/о +18.3 +14.0 76 +18 +18 1017.2 1015.2
17 21.06 З 4 40 км н/о +17.9 +13.8 77 +18 +18 1017.3 1015.3
19 21.06 З 5 40 км н/о +16.8 +13.9 83 +16 +16 1017.8 1015.8
20 21.06 З 4 45 км н/о +16.4 +13.6 84 +16 +16 1018.7 1016.7
22 21.06 З 4 50 км н/о +16.5 +12.6 78 +16 +16 1019.5 1017.6
23 21.06 СЗ 4 50 км н/о +16.4 +12.3 77 +16 +16 1020.1 1018.1
01 22.06 СЗ 4 50 км н/о +15.4 +9.1 66 +15 +15 1021.2 1019.2
02 22.06 СЗ 3 50 км н/о +14.9 +9.3 69 +14 +14 1021.5 1019.6
04 22.06 СЗ 2 40 км н/о +14.8 +10.3 74 +15 +15 1022.6 1020.6
05 22.06 СЗ 3 40 км н/о +14.8 +9.9 72 +14 +14 1023.1 1021.1
07 22.06 СЗ 5 40 км н/о +15.9 +9.4 65 +15 +15 1024.1 1022.1
08 22.06 З 4 40 км н/о +15.9 +8.6 62 +15 +15 1024.6 1022.6
10 22.06 З 4 40 км н/о +16.8 +8.3 57 +16 +16 1025.2 1023.2
11 22.06 З 4 40 км н/о +17.0 +8.9 59 +17 +17 1025.3 1023.3
13 22.06 З 4 30 км н/о +17.2 +8.8 58 +17 +17 1025.1 1023.1
14 22.06 З 4 40 км н/о +17.5 +9.6 60 +17 +17 1025.0 1023.1
16 22.06 З 4 40 км н/о +17.3 +9.6 61 +17 +17 1024.4 1022.4
17 22.06 З 3 40 км н/о +17.0 +10.4 65 +17 +17 1024.2 1022.2
19 22.06 З 3 50 км н/о +16.3 +10.5 69 +16 +16 1023.8 1021.8
20 22.06 СЗ 1 50 км н/о +14.3 +10.6 78 +15 +15 1024.0 1022.0
22 22.06 С 1 45 км н/о +11.3 +10.4 94 +12 +12 1024.3 1022.4
23 22.06 С 3 50 км н/о +12.8 +9.8 82 +11 +11 1024.3 1022.4
01 23.06 С 3 50 км н/о +12.2 +8.6 79 +11 +11 1024.9 1022.9
02 23.06 СВ 3 50 км н/о +12.6 +9.7 82 +11 +11 1025.0 1023.1
04 23.06 СВ 3 50 км н/о +13.9 +10.5 80 +13 +13 1025.2 1023.2
05 23.06 СВ 4 40 км н/о +15.5 +11.3 76 +15 +15 1025.5 1023.6
07 23.06 СВ 1 40 км н/о +18.2 +8.4 53 +19 +19 1025.4 1023.5
08 23.06 СВ 1 30 км н/о +18.4 +9.1 55 +20 +20 1025.4 1023.5
10 23.06 Ю 3 35 км н/о +18.9 +12.7 67 +20 +20 1025.8 1023.8
11 23.06 ЮЗ 3 35 км н/о +19.0 +11.6 62 +20 +20 1025.8 1023.8
13 23.06 ЮЗ 3 40 км н/о +19.0 +11.8 63 +20 +20 1025.9 1023.9
14 23.06 ЮЗ 2 40 км н/о +18.9 +10.7 59 +20 +20 1025.6 1023.6
16 23.06 З 3 45 км н/о +19.4 +6.6 43 +20 +20 1025.1 1023.1
17 23.06 Ю 1 50 км н/о +18.5 +5.7 43 +20 +20 1024.9 1022.9
19 23.06 Ю 1 50 км н/о +16.6 +10.6 68 +17 +17 1025.0 1023.0
20 23.06 С 1 30 км н/о +13.1 +10.7 85 +14 +14 1025.4 1023.4
22 23.06 СВ 2 28 км н/о +10.2 +9.7 97 +9 +9 1026.0 1024.0
23 23.06 СВ 2 45 км н/о +10.4 +9.3 93 +9 +9 1026.5 1024.5
01 24.06 СВ 2 50 км н/о +10.0 +9.0 93 +8 +8 1026.9 1024.9
02 24.06 С 2 50 км н/о +9.3 +7.2 87 +8 +8 1026.7 1024.8
04 24.06 СВ 2 50 км н/о +10.3 +8.2 87 +9 +9 1026.9 1024.9
05 24.06 В 2 40 км н/о +15.4 +11.1 76 +15 +15 1027.2 1025.2
07 24.06 ЮВ 4 35 км н/о +20.1 +13.0 64 +22 +22 комфорт 1027.7 1025.7
08 24.06 ЮВ 6 35 км н/о +19.5 +10.9 58 +20 +20 1027.7 1025.7
10 24.06 ЮВ 5 45 км н/о +19.6 +10.9 57 +21 +21 комфорт 1027.9 1025.9
11 24.06 ЮВ 5 35 км н/о +19.4 +12.3 63 +21 +21 комфорт 1028.1 1026.1
13 24.06 ЮВ 5 35 км н/о +21.9 +11.3 51 +24 +24 комфорт 1027.5 1025.5
14 24.06 В 6 45 км н/о +22.0 +7.5 39 +23 +23 комфорт 1027.6 1025.6
16 24.06 В 5 35 км н/о +20.1 +10.5 54 +21 +21 комфорт 1027.5 1025.5
19 24.06 В 4 50 км н/о +15.9 +11.4 75 +15 +15 1026.9 1024.9
20 24.06 В 5 50 км н/о +15.9 +13.3 85 +15 +15 1027.0 1025.0
22 24.06 В 5 50 км н/о +16.0 +13.7 86 +15 +15 1027.1 1025.2
23 24.06 В 5 45 км н/о +16.2 +14.3 89 +15 +15 1026.8 1024.8
01 25.06 В 5 45 км н/о +16.6 +14.5 87 +16 +16 1026.3 1024.3
02 25.06 В 5 40 км н/о +16.3 +13.9 86 +15 +15 1026.0 1024.0
04 25.06 В 4 40 км н/о +17.3 +13.9 80 +17 +17 1025.6 1023.6
05 25.06 В 5 35 км н/о +18.9 +14.2 74 +20 +20 1025.4 1023.4
08 25.06 ЮВ 6 30 км н/о +21.1 +14.2 65 +24 +24 комфорт 1025.4 1023.4
10 25.06 ЮВ 5 35 км н/о +24.4 +13.4 50 +27 +27 жарко 1025.0 1023.0
11 25.06 ЮВ 5 35 км н/о +25.4 +13.8 49 +28 +28 жарко 1024.9 1022.9
13 25.06 ЮВ 5 35 км н/о +26.6 +14.7 48 +29 +29 жарко 1024.3 1022.3

 

Местоположение метеостанции Рённе (Дания): широта 55.07 долгота 14.75 высота над уровнем моря 17 м.

В архиве по умолчанию представлена погода в Рённе за последнюю неделю. Архивные данные за месяц целиком и за предыдущие месяцы, начиная с января 2011 года, Вы можете получить, выбрав интересующий диапазон дат из раскрывающегося списка и нажав кнопку "Ввод!".


*Определитесь, кто Вы:
робот инопланетянин человек

Внимание! Время в таблицах - всемирное. Для получения местного времени необходимо прибавить поправку, которая равна 1 ч.

Смотрите также архив погоды в соседних городах и на ближайших метеорологических станциях:

Погода в Нексо (Дания) (22 км)
Погода на Маяке Hammer Odde (Дания) (26 км)
Погода в Скиллинге (Швеция) (53 км)
Погода в Рынге (Швеция) (78 км)
Погода в Арконе (Германия) (95 км)
Погода в Мальмё аэропорту (Швеция) (102 км)
Погода в Грайфсвальдер-Ойе (Германия) (106 км)
Погода в Хано (Швеция) (106 км)
Погода в Хёрбю (Швеция) (112 км)
Погода в Колобжеге (Польша) (112 км)

Пояснения к столбцам:

Ветер - указаны скорость ветра в м/с - средняя за 10 мин, порывы в срок и между сроками (в фигурных скобках) и направление, откуда дует ветер: С - северный, СВ - северо-восточный, В - восточный, ЮВ - юго-восточный, Ю - южный, ЮЗ - юго-западный, З - западный, СЗ - северо-западный.
Видимость - горизонтальная дальность видимости в метрах или километрах. При видимости от 1 до 10 км при отсутствии осадков обычно наблюдается дымка, при ухудшении видимости до 1 км и менее - туман. В сухую погоду видимость может ухудшаться дымом, пылью или мглою.
Явления - указаны атмосферные явления, наблюдавшиеся в срок или в последний час перед сроком; фигурными скобками обозначены явления, наблюдавшиеся между сроками (за 1-3 часа до срока); квадратными скобками обозначены град или гололедные отложения с указанием их диаметра в мм.
Облачность - указаны через наклонную черту общая и нижняя облачность в баллах и высота нижней границы облаков в метрах; квадратными скобками обозначены формы облаков: Ci - перистые, Cs - перисто-слоистые, Cc - перисто-кучевые, Ac - высококучевые, As - высокослоистые, Sc - слоисто-кучевые, Ns - слоисто-дождевые, Cu - кучевые, Cb - кучево-дождевые. Подробнее классификацию облаков см. в Атласе облаков (PDF).
T - Температура воздуха - температура, измеренная на высоте 2 м над землей.
Td - Температура точки росы - температура, при понижении до которой содержащийся в воздухе водяной пар достигнет насыщения.
f - Относительная влажность воздуха - влажноcть воздуха, измеренная на высоте 2 м над землей.
Te - Эффективная температура - температура, которую ощущает одетый по сезону человек в тени. Характеристика душности погоды. При расчете учитывается влияние влажности воздуха и скорости ветра на теплоощущения человека.
Tes - Эффективная температура на солнце - температура, которую ощущает человек, с поправкой на солнечный нагрев. Характеристика знойности погоды. Зависит от высоты солнца над горизонтом, облачности и скорости ветра. Ночью, в пасмурную погоду, а также при ветре 12 м/с и более поправка равна нулю.
P - Атмосферное давление - приведенное к уровню моря атмосферное давление.
Po - Атмосферное давление - измеренное на уровне метеостанции атмосферное давление.
Tmin - Минимальная температура - минимум температуры воздуха на высоте 2 м над землей.
Tmax - Максимальная температура - максимум температуры воздуха на высоте 2 м над землей.
R - Количество осадков - Количество выпавших осадков за период времени, мм. При наведении курсора мыши на число - период времени, за который выпало указанное количество осадков.
R24 - Количество осадков - Количество выпавших осадков за 24 часа, мм.
S - Снежный покров - Высота снежного покрова, см. При наведении курсора мыши на число - состояние снежного покрова и степень покрытия местности в баллах.